#timestamp,LO_Frequency,Hit,StdDev 
1633640415.0,286046999.5,N
1633640416.0,286046999.5,N
1633640435.8,286047000.8,N
1633640455.6,286046998.7,N
1633640475.5,286047000.4,N
1633640495.3,286047001.2,N
1633640515.1,286047001.0,N
1633640535.9,286047000.2,N
1633640555.7,286046999.9,N
1633640575.6,286047000.6,N
1633640595.4,286047002.7,N
1633640615.2,286046998.3,N
1633640635.1,286046998.9,N
1633640636.0,286046998.9,N
1633640655.8,286046997.3,N
1633640675.6,286046996.6,N
1633640695.5,286046996.7,N
1633640715.3,286046995.2,N
1633640735.2,286046994.9,N
1633640755.9,286046995.5,N
1633640775.7,286046995.7,N
1633640795.6,286046996.2,N
1633640815.4,286046995.8,N
1633640835.2,286046994.9,N
1633640855.1,286046999.1,N
1633640856.0,286046999.1,N
1633640875.8,286046996.9,N
1633640895.7,286046997.0,N
1633640915.5,286046997.3,N
1633640935.3,286046999.1,N
1633640955.2,286046999.2,N
1633640975.0,286046996.5,N
1633640975.9,286046996.5,N
1633640995.8,286046997.3,N
1633641015.6,286046997.0,N
1633641035.4,286046995.4,N
1633641055.3,286046995.3,N
1633641075.1,286046995.2,N
1633641095.8,286046995.2,N
1633641115.7,286046995.4,N
1633641135.5,286046997.6,N
1633641155.4,286046999.5,N
1633641175.2,286046998.4,N
1633641195.0,286046998.2,N
1633641195.9,286046998.2,N
1633641215.8,286046998.6,N
1633641235.6,286046999.6,N
1633641255.4,286046997.2,N
1633641275.3,286046996.5,N
1633641295.1,286046999.5,N
1633641315.9,286047000.8,N
1633641335.7,286047000.5,N
1633641355.5,286047000.1,N
1633641375.4,286047000.7,N
1633641395.2,286047000.2,N
1633641415.1,286047002.8,N
1633641416.0,286047002.8,N
1633641435.8,286047000.9,N
1633641455.6,286046998.4,N
1633641475.5,286046998.9,N
1633641495.3,286046999.2,N
1633641515.1,286046999.1,N
1633641535.9,286047001.2,N
1633641555.7,286046998.8,N
1633641575.6,286046996.6,N
1633641595.4,286046999.5,N
1633641615.2,286046997.0,N
1633641635.1,286046996.9,N
1633641636.0,286046996.9,N
1633641655.8,286046996.9,N
1633641675.6,286046997.4,N
1633641695.5,286046997.7,N
1633641715.3,286046997.6,N
1633641735.2,286046997.5,N
1633641755.9,286046996.9,N
1633641775.7,286046999.1,N
1633641795.6,286047000.4,N
1633641815.4,286047000.4,N
1633641835.3,286046999.9,N
1633641855.1,286047002.5,N
1633641856.0,286047002.5,N
1633641875.8,286047000.5,N
1633641895.7,286047000.4,N
1633641915.5,286047002.1,N
1633641935.3,286047002.1,N
1633641955.2,286047002.4,N
1633641975.0,286047000.2,N
1633641975.9,286047000.2,N
1633641995.8,286047000.9,N
1633642015.6,286047001.1,N
1633642035.4,286047001.2,N
1633642055.3,286047000.9,N
1633642075.1,286046999.8,N
1633642095.8,286047000.0,N
1633642115.7,286047000.6,N
1633642135.5,286047002.7,N
1633642155.4,286047002.6,N
1633642175.2,286047002.5,N
1633642195.0,286047002.1,N
1633642196.0,286047002.1,N
1633642215.8,286047002.2,N
1633642235.6,286047001.4,N
1633642255.5,286047001.7,N
1633642275.3,286047001.3,N
1633642295.1,286047004.0,Y
1633642315.9,286046999.7,P
1633642335.7,286047002.3,P
1633642355.6,286047002.3,N
1633642375.4,286047000.6,N
1633642395.2,286047001.0,N
1633642415.1,286047001.0,N
1633642416.0,286047001.0,N
1633642435.8,286047000.3,N
1633642455.7,286047000.5,N
1633642475.5,286047000.4,N
1633642495.3,286047000.3,N
1633642515.2,286046998.1,N
1633642535.0,286047000.3,N
1633642535.9,286047000.3,N
1633642555.7,286047000.0,N
1633642575.6,286047000.0,N
1633642595.4,286047002.4,N
1633642615.3,286047002.5,N
1633642635.1,286047002.8,N
1633642655.8,286047000.6,N
1633642675.7,286046998.6,N
1633642695.5,286046998.2,N
1633642715.4,286047000.8,N
1633642735.2,286047000.8,N
1633642755.0,286047000.9,N
1633642755.9,286047000.9,N
1633642775.8,286046998.1,N
1633642795.6,286047001.1,N
1633642815.4,286047000.6,N
1633642835.3,286047000.3,N
1633642855.1,286047000.9,N
1633642875.9,286047002.7,N
1633642895.7,286047002.3,N
1633642915.5,286047003.8,Y
1633642935.4,286047004.1,P
1633642955.2,286047001.7,N
1633642975.0,286047004.1,N
1633642976.0,286047004.1,N
1633642995.8,286047003.1,N
1633643015.6,286047005.5,Y
1633643035.5,286047002.3,P
1633643055.3,286047011.9,P
1633643075.1,286047002.0,N
1633643095.9,286047001.5,N
1633643115.7,286047002.9,N
1633643135.6,286047004.8,N
1633643155.4,286047005.4,N
1633643175.2,286047004.7,N
1633643195.1,286047004.8,N
1633643196.0,286047004.8,N
1633643215.8,286047005.8,N
1633643235.7,286047005.6,N
1633643255.5,286047003.3,N
1633643275.3,286047004.2,N
1633643295.2,286047001.4,N
1633643315.0,286047003.6,N
1633643315.9,286047003.6,N
1633643335.8,286047003.8,N
1633643355.6,286047003.9,N
1633643375.4,286047001.8,N
1633643395.3,286047001.5,N
1633643415.1,286047004.3,N
1633643435.8,286047003.7,N
1633643455.7,286047001.7,N
1633643475.5,286047001.7,N
1633643495.4,286047001.3,N
1633643515.2,286047001.6,N
1633643535.0,286047002.4,N
1633643535.9,286047002.4,N
1633643555.8,286047002.0,N
1633643575.6,286047002.6,N
1633643595.4,286046999.8,N
1633643615.3,286047002.8,N
1633643635.1,286047002.8,N
1633643655.9,286047004.1,N
1633643675.7,286047001.8,N
1633643695.5,286047003.6,N
1633643715.4,286047002.0,N
1633643735.2,286047002.2,N
1633643755.1,286046999.7,N
1633643786.0,286046999.9,E
1633643795.0,286047000.2,N
1633643795.9,286047000.2,P
1633643815.7,286047002.8,P
1633643835.6,286047002.4,N
1633643855.4,286046999.9,N
1633643875.3,286047002.5,N
1633643895.1,286047002.4,N
1633643915.9,286047002.0,N
1633643935.7,286047003.6,Y
1633643955.5,286047001.8,P
1633643975.4,286047002.0,P
1633643995.2,286047002.0,P
